Regional Weather Roundup
Issued by NWS

Home | Current Version | Previous Version | Graphics & Text | Print | Product List | Glossary On
Versions: 1 2 3 4 5 6 7 8 9 10 11 12 13 14 15 16 17 18 19 20 21 22 23 24 25 26 27 28 29 30 31 32 33 34 35 36 37 38 39 40 41 42 43 44 45 46 47 48 49 50
000
ASUS43 KOAX 310002
RWRNE

WEATHER ROUNDUP FOR NEBRASKA
NATIONAL WEATHER SERVICE OMAHA NE
700 PM CDT SUN AUG 30 2015

NOTES: SATELLITE DATA IS BEING USED TO AUGMENT CLOUD COVER ABOVE
       12000 FEET.
       "FAIR" INDICATES FEW OR NO CLOUDS BELOW 12,000 FEET WITH NO
       SIGNIFICANT WEATHER AND/OR OBSTRUCTIONS TO VISIBILITY.

  * THESE STATIONS DO NOT REPORT WEATHER SUCH AS RAIN...SNOW OR FOG.

NEZ001>004-019>022-054>056-310100-
NEBRASKA PANHANDLE

CITY           SKY/WX    TMP DP  RH WIND       PRES   REMARKS
SCOTTSBLUFF    SUNNY     91  54  28 E6        29.83F
6HR MIN TEMP:  85; 6HR MAX TEMP:  97;

ALLIANCE       SUNNY     96  41  15 SE9       29.83F HX  92
6HR MIN TEMP:  90; 6HR MAX TEMP:  99;

CHADRON        SUNNY     99  40  13 S9        29.75S HX  94
6HR MIN TEMP:  95; 6HR MAX TEMP: 103;

KIMBALL        MOSUNNY   90  42  18 S8        29.91S
SIDNEY         SUNNY     95  33  11 SW13      29.89F HX  90
6HR MIN TEMP:  90; 6HR MAX TEMP:  99;

$$

NEZ057>060-069>072-079>082-310100-
SOUTHWEST NEBRASKA

CITY           SKY/WX    TMP DP  RH WIND       PRES   REMARKS
NORTH PLATTE   SUNNY     88  40  18 S14G22    29.88F
6HR MIN TEMP:  87; 6HR MAX TEMP:  93;

IMPERIAL       SUNNY     91  38  15 S18G25    29.90F
6HR MIN TEMP:  90; 6HR MAX TEMP:  95;

MCCOOK         SUNNY     90  40  17 S13G21    29.90F HAZE
6HR MIN TEMP:  90; 6HR MAX TEMP:  97;

$$

NEZ005>010-023>029-035>040-094-310100-
NORTH CENTRAL NEBRASKA

CITY           SKY/WX    TMP DP  RH WIND       PRES   REMARKS
VALENTINE      CLOUDY    92  43  18 S18       29.79F
6HR MIN TEMP:  92; 6HR MAX TEMP:  96;

AINSWORTH      MOSUNNY   87  54  32 S18G24    29.84F
BROKEN BOW     SUNNY     83  63  50 S15G25    29.91F
6HR MIN TEMP:  83; 6HR MAX TEMP:  89;

ORD            SUNNY     81  64  56 S12G22    29.90F
6HR MIN TEMP:  81; 6HR MAX TEMP:  89;

$$

NEZ041-046>049-061>064-073>077-083>087-310100-
SOUTH CENTRAL NEBRASKA

CITY           SKY/WX    TMP DP  RH WIND       PRES   REMARKS
GRAND ISLAND   SUNNY     76  66  71 SE10      29.96F
6HR MIN TEMP:  76; 6HR MAX TEMP:  81;

AURORA         SUNNY     75  65  70 S9        29.96S
HASTINGS       SUNNY     77  64  64 SE13      29.96F
6HR MIN TEMP:  77; 6HR MAX TEMP:  81;

KEARNEY *      SUNNY     77  61  57 SE9       29.95S
YORK           SUNNY     75  66  73 S7        29.97S
$$

NEZ011>018-030>034-042>045-310100-
NORTHEAST NEBRASKA

CITY           SKY/WX    TMP DP  RH WIND       PRES   REMARKS
NORFOLK        SUNNY     74  67  78 SE12      29.93F
6HR MIN TEMP:  73; 6HR MAX TEMP:  78;

ALBION         SUNNY     74  65  71 S9G16     29.94F
BLAIR          SUNNY     72  66  80 S8        29.96F
COLUMBUS *     SUNNY    N/A N/A N/A S6        29.95F
FREMONT        SUNNY     73  66  77 S7        29.97S
TEKAMAH        SUNNY     73  68  84 S6        29.96S
6HR MIN TEMP:  68; 6HR MAX TEMP:  75;

$$

NEZ050>053-065>068-078-088>093-310100-
SOUTHEAST NEBRASKA

CITY           SKY/WX    TMP DP  RH WIND       PRES   REMARKS
LINCOLN        SUNNY     76  67  73 S12       29.97F
6HR MIN TEMP:  72; 6HR MAX TEMP:  78;

OMAHA EPPLEY   MOSUNNY   75  67  76 S12       29.96F
6HR MIN TEMP:  70; 6HR MAX TEMP:  77;

BEATRICE       SUNNY     77  67  72 SE6       29.97F
FALLS CITY     SUNNY     78  70  76 CALM      29.95F
6HR MIN TEMP:  74; 6HR MAX TEMP:  82;

NEBRASKA CITY  SUNNY     75  67  75 S3        29.98F
PLATTSMOUTH    SUNNY     74  66  77 SE6       29.98S
$$

NEZ044-045-051>053-067-310100-
OMAHA AREA

CITY           SKY/WX    TMP DP  RH WIND       PRES   REMARKS
OMAHA EPPLEY   MOSUNNY   75  67  76 S12       29.96F
6HR MIN TEMP:  70; 6HR MAX TEMP:  77;

BLAIR          SUNNY     72  66  80 S8        29.96F
FREMONT        SUNNY     73  66  77 S7        29.97S
OFFUTT AFB     SUNNY     75  68  79 S6        29.96F
PLATTSMOUTH    SUNNY     74  66  77 SE6       29.98S
WAHOO          FAIR      73  68  83 S6        29.96F
$$




USA.gov is the U.S. government's official web portal to all federal, state and local government web resources and services.